[[{"header":{"parameterUnit":"m.s-1","parameterCategory":1,"la1":30.2992,"la2":30.254,"lo1":-89.0895,"lo2":-89.0443,"dy":0.0025,"dx":0.0025,"nx":19,"ny":19,"refTime":"2026-03-30T03:00:00:Z","depth":0,"parameterNumber":2,"parameterNumberName":"U-component_of_WINDS"},"data":[0,0,0,-7.4223,-7.4226,-7.4322,-7.4322,-7.4494,-7.4496,0,0,0,0,0,0,0,0,0,0,0,-7.4226,-7.4228,-7.4223,-7.4226,-7.4322,-7.4322,-7.4494,-7.4496,0,0,0,0,0,0,0,0,0,0,0,-7.4224,-7.4227,-7.423,-7.4226,-7.4322,-7.4322,-7.4493,-7.4403,0,0,0,0,0,0,0,0,0,0,-7.4301,-7.4334,-7.4227,-7.423,-7.4227,-7.4322,-7.4322,-7.4398,-7.4408,-7.4472,0,-7.4538,0,-7.452,-7.4511,-7.4511,0,0,0,-7.4202,-7.4326,-7.4323,-7.423,-7.4228,-7.4322,-7.4272,-7.4403,-7.4415,-7.4487,-7.454,-7.4545,-7.4523,-7.4512,-7.4513,-7.4961,-7.4964,0,0,-7.4197,-7.4259,-7.4315,-7.4333,-7.4323,-7.4269,-7.4275,-7.441,-7.4471,-7.454,-7.4548,-7.4526,-7.4514,-7.4515,-7.4958,-7.4962,0,0,0,-7.4198,-7.4257,-7.425,-7.4327,-7.4341,-7.4272,-7.4279,-7.4465,-7.4458,-7.4549,-7.4528,-7.4515,-7.4518,-7.4955,-7.496,-7.5177,0,0,0,-7.4193,-7.4257,-7.4249,-7.4288,-7.434,-7.4405,-7.4333,-7.4449,-7.4462,-7.4527,-7.4515,-7.452,-7.4951,-7.4957,-7.5164,-7.5269,0,0,0,-7.4209,-7.4258,-7.4283,-7.4291,-7.4335,-7.4401,-7.4401,-7.445,-7.445,-7.4512,-7.452,-7.4949,-7.4956,-7.5152,-7.5249,-7.5404,0,0,0,-7.4242,-7.4475,-7.4288,-7.4539,-7.4335,-7.4536,-7.4399,-7.4546,-7.4625,-7.4516,-7.4952,-7.4959,-7.5148,-7.5236,-7.5392,-7.5545,-7.5615,0,0,-7.4571,-7.4517,-7.466,-7.4495,-7.4746,-7.4517,-7.4799,-7.4812,-7.476,-7.4897,-7.4907,-7.5168,-7.5248,-7.5402,-7.5991,-7.6047,0,0,0,-7.4785,-7.4889,-7.4942,-7.502,-7.5037,-7.5059,-7.5023,-7.5027,-7.514,-7.4844,-7.5265,-7.5311,-7.5398,-7.5468,-7.5516,-7.5587,-7.4995,-7.4994,-7.4993,-7.5337,-7.526,-7.5491,-7.5426,-7.5505,-7.5465,-7.5521,-7.552,-7.5419,-7.552,-7.5559,-7.5926,-7.6011,-7.6046,-7.6121,-7.5636,-7.5637,-7.5637,-7.5638,-7.5809,-7.5942,-7.5804,-7.5978,-7.5895,-7.604,-7.6012,-7.5936,-7.6058,-7.589,-7.5964,-7.5786,-7.6111,-7.6171,-7.5654,-7.5651,-7.5649,-7.5647,-7.5646,-7.616,-7.621,-7.6214,-7.6319,-7.641,-7.6336,-7.646,-7.638,-7.6306,-7.6379,-7.641,-7.6406,-7.639,-7.64,-7.6401,-7.6402,-7.6404,-7.6404,-7.6405,-7.6521,-7.6518,-7.6633,-7.6672,-7.6711,-7.6754,-7.6718,-7.6755,-7.6775,-7.6707,-7.6707,-7.6595,-7.6158,-7.6049,-7.6425,-7.6421,-7.6419,-7.6417,-7.6416,-7.7024,-7.6898,-7.7076,-7.7116,-7.7154,-7.7249,-7.7147,-7.7229,-7.7248,-7.7312,-7.7185,-7.6876,-7.6814,-7.6776,-7.6684,-7.7202,-7.7202,-7.7202,-7.7202,-7.7318,-7.728,-7.7443,-7.7513,-7.7573,-7.7499,-7.7701,-7.7676,-7.763,-7.7637,-7.7551,-7.7424,-7.7388,-7.7347,-7.7296,-7.721,-7.785,-7.785,-7.7851,-7.7622,-7.7586,-7.7773,-7.7728,-7.7752,-7.7775,-7.7962,-7.8047,-7.7969,-7.7875,-7.764,-7.7613,-7.7406,-7.7344,-7.7242,-7.7165,-7.7004,0,0]},{"header":{"parameterUnit":"m.s-1","parameterCategory":1,"la1":30.2992,"la2":30.254,"lo1":-89.0895,"lo2":-89.0443,"dy":0.0025,"dx":0.0025,"nx":19,"ny":19,"refTime":"2026-03-30T03:00:00:Z","depth":0,"parameterNumber":3,"parameterNumberName":"V-component_of_WINDS"},"data":[0,0,0,1.2702,1.2702,1.2694,1.2694,1.2692,1.2693,0,0,0,0,0,0,0,0,0,0,0,1.2711,1.2711,1.2702,1.2702,1.2694,1.2694,1.2692,1.2693,0,0,0,0,0,0,0,0,0,0,0,1.2711,1.2711,1.2711,1.2702,1.2694,1.2694,1.2692,1.2695,0,0,0,0,0,0,0,0,0,0,1.2701,1.2716,1.2711,1.2711,1.2702,1.2694,1.2694,1.2695,1.2695,1.2701,0,1.2708,0,1.2701,1.2693,1.2693,0,0,0,1.2697,1.2716,1.2708,1.2711,1.2702,1.2694,1.2696,1.2695,1.2695,1.27,1.2708,1.2708,1.2701,1.2693,1.2693,1.2749,1.275,0,0,1.2697,1.2712,1.2709,1.2709,1.2712,1.2696,1.2696,1.2695,1.2703,1.2708,1.2707,1.2701,1.2693,1.2693,1.2749,1.2749,0,0,0,1.2702,1.2713,1.2705,1.2709,1.2707,1.2696,1.2696,1.2703,1.27,1.2707,1.2701,1.2693,1.2693,1.2748,1.2749,1.2791,0,0,0,1.2702,1.2716,1.2706,1.2715,1.2707,1.2705,1.2705,1.27,1.2699,1.2701,1.2693,1.2694,1.2748,1.2749,1.2789,1.2808,0,0,0,1.2709,1.2716,1.2718,1.2715,1.2713,1.2705,1.2701,1.2699,1.2695,1.2693,1.2694,1.2747,1.2748,1.2787,1.2804,1.2829,0,0,0,1.272,1.2752,1.2719,1.2752,1.2713,1.2732,1.2701,1.2713,1.2716,1.2693,1.2748,1.2749,1.2786,1.2802,1.2827,1.2852,1.2865,0,0,1.2769,1.2759,1.2777,1.2747,1.2776,1.2732,1.2766,1.2753,1.2738,1.2746,1.2747,1.2789,1.2804,1.2828,1.2927,1.2937,0,0,0,1.2798,1.2812,1.2816,1.2822,1.2815,1.2811,1.2792,1.2788,1.2795,1.2746,1.2804,1.2812,1.2826,1.2837,1.2846,1.2857,1.2755,1.2755,1.2755,1.2887,1.2869,1.2899,1.2881,1.2887,1.287,1.2873,1.2864,1.284,1.2855,1.2857,1.292,1.2934,1.294,1.2953,1.2869,1.2869,1.287,1.287,1.2957,1.2974,1.2948,1.2968,1.2949,1.2964,1.295,1.2934,1.2946,1.2916,1.2927,1.2895,1.2952,1.2962,1.2873,1.2872,1.2872,1.2872,1.2871,1.3013,1.3019,1.3016,1.3025,1.3034,1.3014,1.3029,1.301,1.2992,1.3003,1.3004,1.3004,1.3001,1.3005,1.3005,1.3006,1.3006,1.3006,1.3006,1.3073,1.3068,1.3084,1.3083,1.3086,1.3088,1.3074,1.3076,1.3074,1.3059,1.3059,1.3036,1.2961,1.2943,1.3009,1.3009,1.3008,1.3008,1.3008,1.3151,1.3131,1.3155,1.3159,1.3158,1.317,1.3148,1.3155,1.3154,1.3162,1.3138,1.3086,1.3073,1.3066,1.3051,1.3141,1.3141,1.3141,1.3141,1.3199,1.3192,1.3214,1.3222,1.3227,1.3211,1.324,1.323,1.3217,1.3216,1.32,1.3179,1.3173,1.3163,1.3154,1.314,1.3251,1.3251,1.3251,1.3246,1.324,1.3268,1.3257,1.3256,1.3256,1.3284,1.3294,1.3274,1.3255,1.3215,1.321,1.3175,1.3165,1.3143,1.313,1.3103,0,0]}]]